Погода в Нихалое

Россия / Чеченская Республика     42°50′32″N   45°39′50″E
темп.,
°C
ветер,
м/с
пор.,
м/с
влажн.,
%
обл.,
%
осадки,
мм/ч
давл.,
гПа
погр.,
м
7 мая, пт
пт700:00+6ю3357100 0.0 101436
03:00+5ю324795 0.0 101429
06:00+6ю2245100 0.0 101533
09:00+13с223699 0.0 1014752
12:00+15с3249100 0.0 10141475
15:00+12с437197 0.8 1016947
18:00+9ссз229194 1.5 1018239
21:00+7ю119444 1.8 102022
8 мая, сб
сб800:00+6ююв218943 0.0 102016
03:00+5ю22855 0.0 102027
06:00+7ю24830 0.0 101990
09:00+16всв12445 0.0 10151185
12:00+19ссз23355 0.0 10131798
15:00+18ссз234449 0.0 10121348
18:00+14зсз026698 0.0 101375
21:00+9ю3469100 0.0 101566
9 мая, вс
вс900:00+8ю34665 0.0 101459
03:00+8ю45655 0.0 101276
06:00+10ю3463100 0.0 101091
09:00+17сз1341100 0.0 10081180
12:00+15св025472 0.0 10091099
15:00+16ссз435970 0.1 10081064
18:00+6ссв4599100 3.7 1015461
21:00+2ссв2399100 5.3 1020304
10 мая, пн
пн1000:00−1ссв2499100 6.7 1024294
03:00−1з0298100 10.6 1024193
06:00−1в0196100 2.1 1024149
09:00+1вюв108386 3.7 1023444
12:00+3ссв328198 0.5 10201155
15:00+1ссв2297100 3.6 1021385
18:00+2с119180 0.5 1020354
21:00−2ю229536 0.6 102321
11 мая, вт
вт1100:00−4ююв229132 0.0 102341
03:00−5ю329015 0.0 102341
06:00−1ююв128730 0.0 102181
09:00+4ссв1178100 0.0 1017577
12:00+7с2372100 0.1 10141126
15:00+7с128088 0.3 1014820
18:00+5ссз119367 0.1 1017249
21:00+1ю22937 0.1 102031